Flag for U.S.A. Weather past 2 weeks in Galveston, Texas, U.S.A.

Now
64 °F

Clear.


Feels Like: 64 °F
Forecast: 64 / 73 °F
Wind: 7 mph from South

Location: Scholes Field

Current Time: Mar 29, 2015 at 5:22:52 AM

Latest Report: Mar 29, 2015 at 4:52 AM


Visibility: 10 mi

Pressure: 30.13 "Hg

Humidity: 97%

Dew point: 63 °F

Location of GalvestonLocation

Historic Weather in Galveston — Graph

°F

Galveston temperature yesterday

Maximum temperature yesterday: 72 °F (at 2:52 PM)
Minimum temperature yesterday: 60 °F (at 4:52 AM)
Average temperature yesterday: 66 °F

Past Weeks' High & Low Weather Summary

 TemperatureHumidityPressure
High76 °F (Mar 27, 5:52 PM)100% (Mar 14, 5:52 AM)30.28 "Hg (Mar 14, 5:52 AM)
Low55 °F (Mar 27, 6:52 AM)33% (Mar 27, 5:52 PM)29.86 "Hg (Mar 26, 4:52 AM)
Average66 °F87%30.07 "Hg
* Reported Mar 14 3:52 AM — Mar 29 3:52 AM, Galveston, Weather by CustomWeather, © 2015

Note: Actual official high and low records may vary slightly from our data, if they occured in-between our weather recording intervals... More about our weather records

Advertising

Galveston weather history for previous 24 hours

 ConditionsComfort  
Time TempWeatherWind HumidityBarometerVisibility
3:52 AM
Sun, Mar 29
65 °FClear.7 mph94%30.13 "Hg10 mi
2:52 AM65 °FClear.8 mph94%30.13 "Hg10 mi
1:52 AM65 °FClear.12 mph97%30.13 "Hg10 mi
12:52 AM65 °FClear.13 mph97%30.14 "Hg10 mi
11:52 PM
Sat, Mar 28
65 °FClear.10 mph97%30.14 "Hg10 mi
10:52 PM65 °FClear.12 mph97%30.15 "Hg10 mi
9:52 PM64 °FClear.8 mph97%30.15 "Hg10 mi
8:52 PM65 °FClear.6 mph94%30.14 "Hg10 mi
7:52 PM65 °FSunny.8 mph94%30.13 "Hg10 mi
6:52 PM67 °FSunny.12 mph85%30.12 "Hg10 mi
5:52 PM69 °FSunny.14 mph79%30.11 "Hg10 mi
4:52 PM71 °FSunny.16 mph71%30.11 "Hg10 mi
3:52 PM71 °FSunny.17 mph66%30.12 "Hg10 mi
2:52 PM72 °FSunny.16 mph66%30.13 "Hg10 mi
1:52 PM71 °FSunny.16 mph66%30.16 "Hg10 mi
12:52 PM71 °FSunny.9 mph59%30.19 "Hg10 mi
11:52 AM70 °FSunny.10 mph64%30.20 "Hg10 mi
10:52 AM69 °FSunny.8 mph68%30.20 "Hg10 mi
9:52 AM67 °FSunny.10 mph81%30.19 "Hg10 mi
8:52 AM65 °FSunny.9 mph78%30.19 "Hg10 mi
7:52 AM62 °FClear.8 mph80%30.18 "Hg10 mi
6:52 AM61 °FClear.10 mph81%30.15 "Hg10 mi
5:52 AM60 °FClear.7 mph78%30.15 "Hg10 mi
Weather by CustomWeather, © 2015

See weather overviewHow to use our weather pages